SWA1763 KPHX-KLAX

Flight info

Callsign SWA1763
Flight time 0h 54m
Altitude 30000
Route KEENS3 WLVRN ESTWD HLYWD1
Aircraft B738/M-SDE2E3FGHIRWXY/LB1

Departure

Time 2026-05-04 03:04
Airport Phoenix Sky Harbor International Airport (KPHX)

Arrival

Time 2026-05-04 03:58
Airport Los Angeles International Airport (KLAX)
Time Latitude Longitude Altitude Speed Heading
2026-05-04 02:08 33.43395 -111.99989 1143 ft 0 kts 90°
2026-05-04 02:57 33.43395 -111.99990 1143 ft 1 kts 90°
2026-05-04 02:58 33.43395 -111.99994 1143 ft 1 kts 91°
2026-05-04 02:58 33.43398 -112.00023 1143 ft 1 kts 110°
2026-05-04 02:58 33.43405 -112.00040 1143 ft 2 kts 135°
2026-05-04 02:58 33.43416 -112.00049 1143 ft 2 kts 171°
2026-05-04 02:59 33.43431 -112.00050 1143 ft 2 kts 180°
2026-05-04 02:59 33.43446 -112.00050 1143 ft 2 kts 180°
2026-05-04 02:59 33.43449 -112.00050 1143 ft 0 kts 180°
2026-05-04 03:01 33.43403 -112.00050 1143 ft 8 kts 180°
2026-05-04 03:01 33.43371 -112.00050 1143 ft 8 kts 180°
2026-05-04 03:01 33.43278 -112.00050 1143 ft 14 kts 180°
2026-05-04 03:01 33.43210 -111.99996 1143 ft 13 kts 101°
2026-05-04 03:02 33.43205 -111.99839 1143 ft 28 kts 90°
2026-05-04 03:02 33.43206 -111.99628 1143 ft 20 kts 90°
2026-05-04 03:02 33.43205 -111.99456 1143 ft 23 kts 90°
2026-05-04 03:02 33.43179 -111.99363 1143 ft 9 kts 167°
2026-05-04 03:03 33.43111 -111.99372 1143 ft 5 kts 227°
2026-05-04 03:03 33.43103 -111.99550 1143 ft 50 kts 270°
2026-05-04 03:03 33.43104 -112.00222 1143 ft 110 kts 268°
2026-05-04 03:03 33.43102 -112.01338 1198 ft 155 kts 268°
2026-05-04 03:04 33.43115 -112.02704 1784 ft 166 kts 267°
2026-05-04 03:04 33.43154 -112.04079 2499 ft 173 kts 268°
2026-05-04 03:04 33.43059 -112.05593 2909 ft 195 kts 255°
2026-05-04 03:04 33.42561 -112.07656 3340 ft 222 kts 248°
2026-05-04 03:05 33.40180 -112.15677 6052 ft 263 kts 246°
2026-05-04 03:05 33.38873 -112.24151 9583 ft 276 kts 269°
2026-05-04 03:05 33.40712 -112.33644 12266 ft 306 kts 278°
2026-05-04 03:05 33.42493 -112.44070 14450 ft 340 kts 277°
2026-05-04 03:06 33.43500 -112.50497 15114 ft 370 kts 277°
2026-05-04 03:06 33.44928 -112.59669 17534 ft 369 kts 276°
2026-05-04 03:06 33.45468 -112.72061 20269 ft 369 kts 270°
2026-05-04 03:06 33.47576 -112.84225 22340 ft 386 kts 286°
2026-05-04 03:07 33.51431 -112.96189 24593 ft 383 kts 287°
2026-05-04 03:07 33.55378 -113.07792 27312 ft 366 kts 287°
2026-05-04 03:07 33.59175 -113.18949 29656 ft 354 kts 286°
2026-05-04 03:07 33.60278 -113.22192 29961 ft 356 kts 287°
2026-05-04 03:08 33.61216 -113.24901 29912 ft 354 kts 287°
2026-05-04 03:08 33.63074 -113.30318 29862 ft 348 kts 286°
2026-05-04 03:09 33.64907 -113.35701 29838 ft 349 kts 286°
2026-05-04 03:09 33.66738 -113.41098 29825 ft 349 kts 286°
2026-05-04 03:10 33.76113 -113.68800 29825 ft 349 kts 285°
2026-05-04 03:10 33.81449 -113.84592 29804 ft 350 kts 286°
2026-05-04 03:11 33.83303 -113.90006 29795 ft 350 kts 286°
2026-05-04 03:11 33.85141 -113.95431 29786 ft 351 kts 286°
2026-05-04 03:12 33.86980 -114.00879 29777 ft 351 kts 286°
2026-05-04 03:12 33.88815 -114.06318 29772 ft 351 kts 286°
2026-05-04 03:13 33.90510 -114.11781 29770 ft 347 kts 280°
2026-05-04 03:13 33.91571 -114.17431 29768 ft 345 kts 277°
2026-05-04 03:14 33.92513 -114.23094 29768 ft 343 kts 276°
2026-05-04 03:14 33.93450 -114.28711 29764 ft 342 kts 276°
2026-05-04 03:15 33.94385 -114.34296 29766 ft 341 kts 276°
2026-05-04 03:15 33.95325 -114.39937 29757 ft 343 kts 276°
2026-05-04 03:16 33.96259 -114.45553 29751 ft 342 kts 276°
2026-05-04 03:16 33.97198 -114.51182 29749 ft 341 kts 276°
2026-05-04 03:17 33.98158 -114.56754 29748 ft 343 kts 276°
2026-05-04 03:17 33.99112 -114.62398 29751 ft 342 kts 276°
2026-05-04 03:18 34.00074 -114.67988 29760 ft 342 kts 276°
2026-05-04 03:18 34.01013 -114.73616 29761 ft 341 kts 276°
2026-05-04 03:19 34.01939 -114.79248 29760 ft 344 kts 276°
2026-05-04 03:19 34.02860 -114.84900 29760 ft 344 kts 276°
2026-05-04 03:20 34.03775 -114.90538 29763 ft 343 kts 276°
2026-05-04 03:20 34.04672 -114.96046 29765 ft 344 kts 276°
2026-05-04 03:21 34.05275 -114.99761 29770 ft 343 kts 276°
2026-05-04 03:21 34.05871 -115.03440 29762 ft 340 kts 276°
2026-05-04 03:22 34.06683 -115.08436 29769 ft 342 kts 276°
2026-05-04 03:22 34.07594 -115.14072 29775 ft 341 kts 276°
2026-05-04 03:23 34.08496 -115.19672 29778 ft 340 kts 276°
2026-05-04 03:23 34.09396 -115.25281 29782 ft 340 kts 276°
2026-05-04 03:24 34.10293 -115.30857 29786 ft 340 kts 276°
2026-05-04 03:24 34.11240 -115.36471 29791 ft 340 kts 276°
2026-05-04 03:25 34.12146 -115.42076 29796 ft 340 kts 276°
2026-05-04 03:25 34.13033 -115.47655 29805 ft 341 kts 275°
2026-05-04 03:26 34.13923 -115.53288 29806 ft 342 kts 275°
2026-05-04 03:26 34.14809 -115.58935 29811 ft 342 kts 275°
2026-05-04 03:27 34.15695 -115.64564 29818 ft 340 kts 275°
2026-05-04 03:27 34.16070 -115.70186 29826 ft 335 kts 265°
2026-05-04 03:28 34.15740 -115.75793 29833 ft 334 kts 262°
2026-05-04 03:28 34.15200 -115.81414 29836 ft 336 kts 262°
2026-05-04 03:29 34.14656 -115.86976 29844 ft 334 kts 261°
2026-05-04 03:29 34.14101 -115.92618 29853 ft 339 kts 261°
2026-05-04 03:30 34.13550 -115.98229 29858 ft 338 kts 261°
2026-05-04 03:30 34.13018 -116.03811 29860 ft 335 kts 261°
2026-05-04 03:31 34.12476 -116.09398 29864 ft 335 kts 261°
2026-05-04 03:31 34.11918 -116.14968 29870 ft 335 kts 261°
2026-05-04 03:32 34.11364 -116.20518 29873 ft 334 kts 261°
2026-05-04 03:32 34.10809 -116.26038 29867 ft 324 kts 261°
2026-05-04 03:33 34.10273 -116.31388 29868 ft 316 kts 261°
2026-05-04 03:33 34.09724 -116.36635 29745 ft 315 kts 261°
2026-05-04 03:33 34.09447 -116.39206 29470 ft 309 kts 261°
2026-05-04 03:34 34.09173 -116.41763 29085 ft 306 kts 261°
2026-05-04 03:34 34.08900 -116.44283 28693 ft 304 kts 261°
2026-05-04 03:34 34.08624 -116.46807 28305 ft 302 kts 261°
2026-05-04 03:34 34.08352 -116.49311 27916 ft 300 kts 260°
2026-05-04 03:35 34.08081 -116.51799 27535 ft 298 kts 260°
2026-05-04 03:35 34.07812 -116.54279 27159 ft 296 kts 260°
2026-05-04 03:35 34.07544 -116.56734 26786 ft 294 kts 261°
2026-05-04 03:35 34.07282 -116.59151 26415 ft 293 kts 261°
2026-05-04 03:36 34.07054 -116.61585 26042 ft 291 kts 262°
2026-05-04 03:36 34.06844 -116.64010 25669 ft 290 kts 261°
2026-05-04 03:36 34.06627 -116.66422 25298 ft 288 kts 261°
2026-05-04 03:36 34.06407 -116.68819 24929 ft 287 kts 261°
2026-05-04 03:37 34.06185 -116.71199 24562 ft 285 kts 261°
2026-05-04 03:37 34.05962 -116.73570 24197 ft 284 kts 261°
2026-05-04 03:37 34.05738 -116.75936 23832 ft 283 kts 261°
2026-05-04 03:37 34.05518 -116.78263 23472 ft 282 kts 261°
2026-05-04 03:38 34.05296 -116.80603 23111 ft 281 kts 261°
2026-05-04 03:38 34.05075 -116.82935 22752 ft 279 kts 261°
2026-05-04 03:38 34.04854 -116.85262 22392 ft 278 kts 261°
2026-05-04 03:38 34.04634 -116.87582 22039 ft 277 kts 261°
2026-05-04 03:39 34.04408 -116.89884 21687 ft 276 kts 260°
2026-05-04 03:39 34.04119 -116.92162 21336 ft 275 kts 258°
2026-05-04 03:39 34.03807 -116.94439 20982 ft 274 kts 258°
2026-05-04 03:39 34.03509 -116.96668 20635 ft 273 kts 259°
2026-05-04 03:40 34.03212 -116.98931 20286 ft 272 kts 259°
2026-05-04 03:40 34.02919 -117.01176 19938 ft 271 kts 259°
2026-05-04 03:40 34.02626 -117.03424 19590 ft 271 kts 259°
2026-05-04 03:40 34.02361 -117.05664 19249 ft 270 kts 260°
2026-05-04 03:41 34.02106 -117.07900 18905 ft 269 kts 260°
2026-05-04 03:41 34.01841 -117.10146 18560 ft 268 kts 259°
2026-05-04 03:41 34.01579 -117.12341 18224 ft 267 kts 259°
2026-05-04 03:41 34.01315 -117.14556 17887 ft 266 kts 259°
2026-05-04 03:42 34.01051 -117.16762 17545 ft 266 kts 259°
2026-05-04 03:42 34.00786 -117.18970 17203 ft 265 kts 259°
2026-05-04 03:42 34.00526 -117.21136 16868 ft 265 kts 259°
2026-05-04 03:42 34.00259 -117.23372 16520 ft 265 kts 259°
2026-05-04 03:43 33.99995 -117.25562 16182 ft 264 kts 259°
2026-05-04 03:43 33.99734 -117.27740 15852 ft 264 kts 259°
2026-05-04 03:43 33.99476 -117.29890 15525 ft 263 kts 259°
2026-05-04 03:43 33.99185 -117.32093 15115 ft 266 kts 257°
2026-05-04 03:44 33.98917 -117.34273 15047 ft 265 kts 259°
2026-05-04 03:44 33.98683 -117.36493 14899 ft 268 kts 260°
2026-05-04 03:44 33.98434 -117.38741 14476 ft 272 kts 259°
2026-05-04 03:44 33.98182 -117.40901 14133 ft 272 kts 259°
2026-05-04 03:45 33.97916 -117.43158 13783 ft 272 kts 259°
2026-05-04 03:45 33.97649 -117.45411 13435 ft 272 kts 259°
2026-05-04 03:45 33.97383 -117.47677 13087 ft 272 kts 260°
2026-05-04 03:45 33.97424 -117.49970 12742 ft 276 kts 275°
2026-05-04 03:46 33.97891 -117.52225 12399 ft 279 kts 282°
2026-05-04 03:46 33.98488 -117.54458 12045 ft 280 kts 284°
2026-05-04 03:46 33.99074 -117.56697 11703 ft 280 kts 283°
2026-05-04 03:46 33.99622 -117.58924 11367 ft 281 kts 283°
2026-05-04 03:47 34.00159 -117.61181 11030 ft 281 kts 283°
2026-05-04 03:47 34.00694 -117.63452 10688 ft 281 kts 283°
2026-05-04 03:47 34.01229 -117.65723 10347 ft 282 kts 283°
2026-05-04 03:47 34.01762 -117.67991 10106 ft 278 kts 283°
2026-05-04 03:48 34.02133 -117.70241 10007 ft 270 kts 272°
2026-05-04 03:48 34.02081 -117.72478 9737 ft 270 kts 263°
2026-05-04 03:48 34.01850 -117.74755 9407 ft 270 kts 260°
2026-05-04 03:48 34.01535 -117.76962 9120 ft 270 kts 258°
2026-05-04 03:49 34.01228 -117.79211 8750 ft 275 kts 261°
2026-05-04 03:49 34.01005 -117.81504 8407 ft 275 kts 263°
2026-05-04 03:49 34.00828 -117.83798 8113 ft 274 kts 264°
2026-05-04 03:49 34.00657 -117.86091 7802 ft 276 kts 263°
2026-05-04 03:50 34.00425 -117.88402 7438 ft 277 kts 262°
2026-05-04 03:50 34.00184 -117.90645 7117 ft 276 kts 262°
2026-05-04 03:50 33.99946 -117.92947 7016 ft 269 kts 263°
2026-05-04 03:50 33.99733 -117.95141 6993 ft 257 kts 262°
2026-05-04 03:51 33.99530 -117.97227 6983 ft 244 kts 262°
2026-05-04 03:51 33.99335 -117.99227 6821 ft 238 kts 262°
2026-05-04 03:51 33.99137 -118.01216 6350 ft 239 kts 262°
2026-05-04 03:51 33.98939 -118.03195 6206 ft 238 kts 263°
2026-05-04 03:52 33.98744 -118.05155 6121 ft 232 kts 263°
2026-05-04 03:52 33.98552 -118.07078 6002 ft 229 kts 263°
2026-05-04 03:52 33.98372 -118.08997 5563 ft 237 kts 263°
2026-05-04 03:52 33.98189 -118.10955 5333 ft 234 kts 263°
2026-05-04 03:53 33.97998 -118.12901 5080 ft 232 kts 262°
2026-05-04 03:53 33.97823 -118.14655 4851 ft 230 kts 262°
2026-05-04 03:53 33.97623 -118.16625 4547 ft 229 kts 262°
2026-05-04 03:53 33.97450 -118.18320 4217 ft 232 kts 262°
2026-05-04 03:54 33.97254 -118.20248 3785 ft 230 kts 262°
2026-05-04 03:54 33.97058 -118.22160 3227 ft 229 kts 262°
2026-05-04 03:54 33.96864 -118.24055 2759 ft 224 kts 262°
2026-05-04 03:54 33.96678 -118.25869 2442 ft 217 kts 262°
2026-05-04 03:55 33.96495 -118.27652 2151 ft 206 kts 262°
2026-05-04 03:55 33.96326 -118.29307 1912 ft 203 kts 263°
2026-05-04 03:55 33.96200 -118.30474 1716 ft 201 kts 262°
2026-05-04 03:55 33.96025 -118.32121 1430 ft 198 kts 264°
2026-05-04 03:56 33.95869 -118.33748 1170 ft 190 kts 265°
2026-05-04 03:56 33.95714 -118.35271 946 ft 177 kts 267°
2026-05-04 03:56 33.95572 -118.36667 749 ft 157 kts 267°
2026-05-04 03:56 33.95445 -118.37906 522 ft 148 kts 266°
2026-05-04 03:57 33.95322 -118.39113 328 ft 142 kts 264°
2026-05-04 03:57 33.95197 -118.40283 166 ft 138 kts 263°
2026-05-04 03:57 33.95092 -118.41346 135 ft 117 kts 264°
2026-05-04 03:57 33.95062 -118.41661 135 ft 104 kts 262°
2026-05-04 03:58 33.94917 -118.42594 134 ft 19 kts 233°
2026-05-04 03:58 33.94859 -118.42681 134 ft 9 kts 227°
2026-05-04 03:58 33.94849 -118.42693 134 ft 0 kts 225°
2026-05-04 04:00 33.94842 -118.42701 134 ft 4 kts 225°
2026-05-04 04:00 33.94800 -118.42745 134 ft 9 kts 219°
2026-05-04 04:01 33.94744 -118.42780 134 ft 7 kts 196°
2026-05-04 04:01 33.94723 -118.42786 134 ft 0 kts 191°
2026-05-04 04:01 33.94717 -118.42788 134 ft 1 kts 189°
2026-05-04 04:01 33.94706 -118.42790 134 ft 4 kts 187°
2026-05-04 04:02 33.94645 -118.42774 134 ft 15 kts 137°
2026-05-04 04:02 33.94641 -118.42640 134 ft 17 kts 83°
2026-05-04 04:02 33.94655 -118.42505 134 ft 16 kts 83°
2026-05-04 04:02 33.94668 -118.42377 134 ft 15 kts 83°
2026-05-04 04:03 33.94679 -118.42263 134 ft 14 kts 83°
2026-05-04 04:03 33.94687 -118.42184 134 ft 13 kts 83°
2026-05-04 04:03 33.94698 -118.42077 134 ft 13 kts 83°
2026-05-04 04:03 33.94709 -118.41973 134 ft 12 kts 83°
2026-05-04 04:04 33.94716 -118.41902 134 ft 12 kts 83°
2026-05-04 04:04 33.94722 -118.41849 134 ft 11 kts 83°
2026-05-04 04:04 33.94729 -118.41782 134 ft 11 kts 83°
2026-05-04 04:04 33.94738 -118.41688 134 ft 11 kts 83°
2026-05-04 04:05 33.94748 -118.41596 134 ft 11 kts 83°
2026-05-04 04:05 33.94757 -118.41506 134 ft 11 kts 83°
2026-05-04 04:05 33.94769 -118.41421 134 ft 10 kts 67°
2026-05-04 04:05 33.94786 -118.41326 134 ft 9 kts 107°
2026-05-04 04:06 33.94717 -118.41298 134 ft 15 kts 187°
2026-05-04 04:06 33.94637 -118.41293 134 ft 4 kts 171°
2026-05-04 04:06 33.94581 -118.41285 134 ft 15 kts 173°
2026-05-04 04:06 33.94441 -118.41265 134 ft 21 kts 173°
2026-05-04 04:07 33.94314 -118.41249 134 ft 20 kts 174°
2026-05-04 04:07 33.94213 -118.41235 134 ft 13 kts 171°
2026-05-04 04:07 33.94120 -118.41217 134 ft 14 kts 172°
2026-05-04 04:07 33.94089 -118.41194 134 ft 4 kts 106°
2026-05-04 04:08 33.94093 -118.41121 134 ft 7 kts 83°
2026-05-04 04:08 33.94097 -118.41089 134 ft 0 kts 83°
2026-05-04 04:08 33.94097 -118.41084 134 ft 0 kts 82°
2026-05-04 04:08 33.94097 -118.41083 134 ft 0 kts 83°
2026-05-04 04:09 33.94097 -118.41089 134 ft 2 kts 83°
2026-05-04 04:09 33.94096 -118.41098 134 ft 0 kts 83°